When you browse on this site, cookies collect data to enhance your experience and personalize the content and advertising you see.
Visit our Privacy Policy to learn more. By continuing to use the site, you agree to this use of cookies and data.
  • In Belgien
  • Länderverzeichnis
  • Für 7 Tage
  • Wassertemperatur
  • Wetterkarte
  • Widgets
  • user-avatar
    Anmelden

    Stündliche Wetter Witebsk

    Heute, 7 Juni, Sonntag

    Zeit Temperatur Niederschläge Wind Luftdruck Luftfeuchtigkeit
    00:00 +14°C° 0 mm 1 m/S 744 mmHg 90%
    01:00 +13°C° 0 mm 1 m/S 744 mmHg 90%
    02:00 +12°C° 0 mm 0 m/S 745 mmHg 91%
    03:00 +13°C° 0 mm 0 m/S 745 mmHg 90%
    04:00 +14°C° 0 mm 1 m/S 745 mmHg 89%
    05:00 +15°C° 0 mm 1 m/S 746 mmHg 88%
    06:00 +18°C° 0 mm 1 m/S 746 mmHg 83%
    07:00 +19°C° 0 mm 1 m/S 746 mmHg 78%
    08:00 +20°C° 0 mm 2 m/S 747 mmHg 72%
    09:00 +23°C° 0 mm 2 m/S 747 mmHg 69%
    10:00 +24°C° 0 mm 2 m/S 747 mmHg 65%
    11:00 +25°C° 0 mm 3 m/S 747 mmHg 62%
    12:00 +25°C° 0 mm 3 m/S 747 mmHg 61%
    13:00 +26°C° 0 mm 3 m/S 747 mmHg 60%
    14:00 +26°C° 0 mm 3 m/S 747 mmHg 60%
    15:00 +26°C° 0.1 mm 3 m/S 746 mmHg 64%
    16:00 +26°C° 0.1 mm 3 m/S 746 mmHg 68%
    17:00 +25°C° 0.1 mm 3 m/S 745 mmHg 73%
    18:00 +24°C° 0.5 mm 3 m/S 745 mmHg 78%
    19:00 +22°C° 0.5 mm 3 m/S 745 mmHg 84%
    20:00 +20°C° 0.5 mm 3 m/S 745 mmHg 90%
    21:00 +20°C° 0.2 mm 3 m/S 745 mmHg 91%
    22:00 +19°C° 0.2 mm 3 m/S 745 mmHg 91%
    23:00 +19°C° 0.2 mm 3 m/S 745 mmHg 92%

    Morgen, 8 Juni, Montag

    Zeit Temperatur Niederschläge Wind Luftdruck Luftfeuchtigkeit
    00:00 +19°C° 0 mm 3 m/S 745 mmHg 93%
    01:00 +18°C° 0 mm 3 m/S 745 mmHg 94%
    02:00 +18°C° 0 mm 3 m/S 746 mmHg 95%
    03:00 +18°C° 0 mm 3 m/S 745 mmHg 95%
    04:00 +18°C° 0 mm 3 m/S 745 mmHg 95%
    05:00 +18°C° 0 mm 3 m/S 745 mmHg 94%
    06:00 +19°C° 0 mm 3 m/S 745 mmHg 91%
    07:00 +21°C° 0 mm 3 m/S 745 mmHg 87%
    08:00 +22°C° 0 mm 4 m/S 745 mmHg 83%
    09:00 +23°C° 0 mm 4 m/S 746 mmHg 77%
    10:00 +26°C° 0 mm 4 m/S 746 mmHg 72%
    11:00 +27°C° 0 mm 4 m/S 746 mmHg 66%
    12:00 +27°C° 0 mm 4 m/S 746 mmHg 65%
    13:00 +28°C° 0 mm 4 m/S 746 mmHg 63%
    14:00 +28°C° 0 mm 4 m/S 746 mmHg 62%
    15:00 +28°C° 0 mm 4 m/S 745 mmHg 65%
    16:00 +28°C° 0 mm 4 m/S 745 mmHg 67%
    17:00 +27°C° 0 mm 3 m/S 745 mmHg 70%
    18:00 +26°C° 0 mm 3 m/S 745 mmHg 76%
    19:00 +24°C° 0 mm 3 m/S 745 mmHg 81%
    20:00 +23°C° 0 mm 2 m/S 745 mmHg 87%
    21:00 +21°C° 0 mm 2 m/S 745 mmHg 89%
    22:00 +20°C° 0 mm 2 m/S 745 mmHg 91%
    23:00 +19°C° 0 mm 2 m/S 746 mmHg 93%

    übermorgen, 9 Juni, Dienstag

    Zeit Temperatur Niederschläge Wind Luftdruck Luftfeuchtigkeit
    00:00 +18°C° 0 mm 2 m/S 746 mmHg 94%
    01:00 +18°C° 0 mm 2 m/S 746 mmHg 94%
    02:00 +18°C° 0 mm 2 m/S 746 mmHg 95%
    03:00 +18°C° 0 mm 2 m/S 746 mmHg 95%
    04:00 +18°C° 0 mm 2 m/S 746 mmHg 94%
    05:00 +18°C° 0 mm 2 m/S 746 mmHg 94%
    06:00 +20°C° 0 mm 2 m/S 746 mmHg 89%
    07:00 +22°C° 0 mm 3 m/S 746 mmHg 85%
    08:00 +24°C° 0 mm 3 m/S 747 mmHg 80%
    09:00 +25°C° 0 mm 3 m/S 747 mmHg 74%
    10:00 +27°C° 0 mm 3 m/S 747 mmHg 69%
    11:00 +28°C° 0 mm 4 m/S 747 mmHg 63%
    12:00 +28°C° 0 mm 3 m/S 747 mmHg 62%
    13:00 +28°C° 0 mm 3 m/S 747 mmHg 61%
    14:00 +29°C° 0 mm 3 m/S 747 mmHg 59%
    15:00 +29°C° 0 mm 3 m/S 747 mmHg 62%
    16:00 +28°C° 0 mm 2 m/S 746 mmHg 64%
    17:00 +28°C° 0 mm 2 m/S 746 mmHg 66%
    18:00 +26°C° 0.1 mm 2 m/S 746 mmHg 72%
    19:00 +25°C° 0.1 mm 2 m/S 746 mmHg 79%
    20:00 +23°C° 0.1 mm 2 m/S 746 mmHg 85%
    21:00 +21°C° 0 mm 2 m/S 747 mmHg 86%
    22:00 +20°C° 0 mm 2 m/S 747 mmHg 88%
    23:00 +20°C° 0 mm 2 m/S 747 mmHg 89%

    10 Juni, Mittwoch

    Zeit Temperatur Niederschläge Wind Luftdruck Luftfeuchtigkeit
    00:00 +19°C° 0 mm 2 m/S 747 mmHg 91%
    01:00 +19°C° 0 mm 2 m/S 747 mmHg 92%
    02:00 +18°C° 0 mm 2 m/S 747 mmHg 93%
    03:00 +19°C° 0 mm 2 m/S 747 mmHg 93%
    04:00 +19°C° 0 mm 2 m/S 747 mmHg 92%
    05:00 +19°C° 0 mm 2 m/S 747 mmHg 92%
    06:00 +21°C° 0 mm 2 m/S 747 mmHg 87%
    07:00 +24°C° 0 mm 2 m/S 747 mmHg 82%
    08:00 +25°C° 0 mm 3 m/S 747 mmHg 77%
    09:00 +27°C° 0 mm 3 m/S 747 mmHg 72%
    10:00 +28°C° 0 mm 3 m/S 747 mmHg 67%
    11:00 +29°C° 0 mm 4 m/S 747 mmHg 62%
    12:00 +29°C° 0 mm 4 m/S 746 mmHg 61%
    13:00 +29°C° 0 mm 4 m/S 746 mmHg 60%
    14:00 +30°C° 0 mm 4 m/S 746 mmHg 58%
    15:00 +30°C° 0 mm 4 m/S 746 mmHg 61%
    16:00 +29°C° 0 mm 4 m/S 746 mmHg 65%
    17:00 +29°C° 0 mm 3 m/S 746 mmHg 68%
    18:00 +27°C° 0.1 mm 3 m/S 746 mmHg 73%
    19:00 +26°C° 0.1 mm 3 m/S 746 mmHg 79%
    20:00 +24°C° 0.1 mm 2 m/S 746 mmHg 84%
    21:00 +22°C° 0 mm 3 m/S 746 mmHg 87%
    22:00 +22°C° 0 mm 3 m/S 746 mmHg 89%
    23:00 +21°C° 0 mm 3 m/S 746 mmHg 92%

    11 Juni, Donnerstag

    Zeit Temperatur Niederschläge Wind Luftdruck Luftfeuchtigkeit
    00:00 +20°C° 0 mm 3 m/S 746 mmHg 92%
    01:00 +20°C° 0 mm 3 m/S 746 mmHg 93%
    02:00 +19°C° 0 mm 2 m/S 746 mmHg 94%
    03:00 +20°C° 0 mm 3 m/S 746 mmHg 94%
    04:00 +20°C° 0 mm 3 m/S 746 mmHg 93%
    05:00 +20°C° 0 mm 3 m/S 746 mmHg 93%
    06:00 +21°C° 0 mm 3 m/S 746 mmHg 88%
    07:00 +24°C° 0 mm 3 m/S 746 mmHg 83%
    08:00 +26°C° 0 mm 3 m/S 746 mmHg 79%
    09:00 +27°C° 0 mm 3 m/S 746 mmHg 73%
    10:00 +28°C° 0 mm 3 m/S 746 mmHg 68%
    11:00 +29°C° 0 mm 4 m/S 746 mmHg 63%
    12:00 +29°C° 0.1 mm 4 m/S 746 mmHg 62%
    13:00 +30°C° 0.1 mm 4 m/S 746 mmHg 61%
    14:00 +30°C° 0.1 mm 3 m/S 745 mmHg 60%
    15:00 +30°C° 0.2 mm 3 m/S 745 mmHg 62%
    16:00 +29°C° 0.2 mm 3 m/S 745 mmHg 65%
    17:00 +29°C° 0.2 mm 3 m/S 745 mmHg 68%
    18:00 +27°C° 0 mm 2 m/S 745 mmHg 74%
    19:00 +26°C° 0 mm 2 m/S 745 mmHg 79%
    20:00 +24°C° 0 mm 2 m/S 745 mmHg 85%
    21:00 +23°C° 0.1 mm 2 m/S 745 mmHg 87%
    22:00 +23°C° 0.1 mm 2 m/S 745 mmHg 89%
    23:00 +21°C° 0.1 mm 2 m/S 745 mmHg 91%

    12 Juni, Freitag

    Zeit Temperatur Niederschläge Wind Luftdruck Luftfeuchtigkeit
    00:00 +21°C° 0 mm 1 m/S 745 mmHg 92%
    01:00 +21°C° 0 mm 1 m/S 745 mmHg 93%
    02:00 +21°C° 0 mm 1 m/S 745 mmHg 93%
    03:00 +21°C° 0 mm 1 m/S 745 mmHg 93%
    04:00 +21°C° 0 mm 1 m/S 744 mmHg 93%
    05:00 +21°C° 0 mm 1 m/S 744 mmHg 93%
    06:00 +23°C° 0 mm 2 m/S 745 mmHg 88%
    07:00 +24°C° 0 mm 2 m/S 745 mmHg 83%
    08:00 +26°C° 0 mm 2 m/S 745 mmHg 78%
    09:00 +27°C° 0.2 mm 2 m/S 745 mmHg 73%
    10:00 +28°C° 0.2 mm 2 m/S 745 mmHg 67%
    11:00 +29°C° 0.2 mm 2 m/S 745 mmHg 62%
    12:00 +30°C° 0 mm 2 m/S 744 mmHg 59%
    13:00 +30°C° 0 mm 2 m/S 744 mmHg 56%
    14:00 +31°C° 0 mm 2 m/S 744 mmHg 53%
    15:00 +30°C° 0.1 mm 2 m/S 744 mmHg 56%
    16:00 +30°C° 0.1 mm 2 m/S 744 mmHg 59%
    17:00 +30°C° 0.1 mm 2 m/S 744 mmHg 62%
    18:00 +28°C° 0.2 mm 1 m/S 744 mmHg 68%
    19:00 +26°C° 0.2 mm 1 m/S 744 mmHg 75%
    20:00 +24°C° 0.2 mm 1 m/S 744 mmHg 81%
    21:00 +23°C° 0.3 mm 1 m/S 744 mmHg 85%
    22:00 +21°C° 0.3 mm 2 m/S 744 mmHg 89%
    23:00 +20°C° 0.3 mm 2 m/S 744 mmHg 93%
    Mehr zeigen